St. Cloud, MN

10:18 AM CST on December 15, 2017 (GMT -0600)
Saint Cloud Regional

Weather History for KSTC - August, 2014

Change the Weather History Date:

Wednesday, August 6, 2014

  Actual Average Record
Temperature  
Mean Temperature 70 °F 69 °F  
Max Temperature 85 °F 81 °F 98 °F (2001)
Min Temperature 55 °F 57 °F 41 °F (1977)
Degree Days  
Heating Degree Days 0 1  
Month to date heating degree days 0 6  
Since 1 June heating degree days 33 101  
Since 1 July heating degree days 7 23  
Cooling Degree Days 5 5  
Month to date cooling degree days 38 30  
Year to date cooling degree days 390 332  
Since 1 June cooling degree days 346 307  
Growing Degree Days 20 (Base 50)    
Moisture  
Dew Point 58 °F    
Average Humidity 68    
Maximum Humidity 93    
Minimum Humidity 43    
Precipitation  
Precipitation 0.00 in 0.11 in 1.75 in (1965)
Month to date precipitation 0.17 0.65  
Year to date precipitation 23.95 16.44  
Snow  
Snow 0.00 in 0.00 in 0.00 in ()
Month to date snowfall 0.0 0.0  
Since 1 June snowfall 0.0 0.0  
Since 1 July snowfall 0.0 0.0  
Snow Depth 0.00 in    
Sea Level Pressure  
Sea Level Pressure 30.10 in    
Wind  
Wind Speed 3 mph (East)    
Max Wind Speed 12 mph    
Max Gust Speed 14 mph    
Visibility 10 miles    
Events      
T = Trace of Precipitation, MM = Missing Value Source: NWS Daily Summary

Daily Weather History Graph

Daily Weather History Graph

Search for Another Location

Airport or City:

Trip Planner

Search our weather history database for the weather conditions in past years. The results will help you decide how hot, cold, wet, or windy it might be!

Date:

Astronomy

Aug. 06, 2014 Rise Set
Actual Time 6:05 AM CDT 8:37 PM CDT
Civil Twilight 5:32 AM CDT 9:10 PM CDT
Nautical Twilight 4:50 AM CDT 9:52 PM CDT
Astronomical Twilight 4:02 AM CDT 10:40 PM CDT
Moon 4:57 PM CDT (8/6) 1:40 AM CDT (8/6)
Length of Visible Light 15h 38m
Length of Day
14h 31m
Waxing Gibbous, 78% of the Moon is Illuminated
Aug 6
Waxing Gibbous
Aug 10
Full
Aug 17
Last Quarter
Aug 25
New
Sep 2
First Quarter

Hourly Weather History & Observations

Time (CDT) Temp. Heat Index Dew Point Humidity Pressure Visibility Wind Dir Wind Speed Gust Speed Precip Events Conditions
12:53 AM 61.0 °F - 57.0 °F 87% 30.12 in 10.0 mi NE 3.5 mph - N/A   Clear
1:53 AM 60.1 °F - 55.9 °F 86% 30.11 in 10.0 mi Calm Calm - N/A   Clear
2:53 AM 57.9 °F - 54.0 °F 87% 30.11 in 10.0 mi Calm Calm - N/A   Clear
3:53 AM 55.9 °F - 54.0 °F 93% 30.12 in 9.0 mi Calm Calm - N/A   Clear
4:53 AM 57.0 °F - 54.0 °F 89% 30.12 in 9.0 mi Calm Calm - N/A   Clear
5:53 AM 55.9 °F - 52.0 °F 87% 30.12 in 10.0 mi Calm Calm - N/A   Clear
6:53 AM 57.0 °F - 53.1 °F 87% 30.13 in 8.0 mi Calm Calm - N/A   Clear
7:53 AM 64.0 °F - 57.9 °F 80% 30.13 in 10.0 mi Calm Calm - N/A   Clear
8:53 AM 69.1 °F - 57.0 °F 65% 30.14 in 10.0 mi East 3.5 mph - N/A   Clear
9:53 AM 73.9 °F - 57.9 °F 57% 30.13 in 10.0 mi East 3.5 mph - N/A   Clear
10:53 AM 75.9 °F - 55.9 °F 50% 30.13 in 10.0 mi Calm Calm - N/A   Clear
12:53 PM 82.0 °F 82.1 °F 59.0 °F 45% 30.10 in 10.0 mi East 8.1 mph - N/A   Clear
1:53 PM 82.4 °F 82.5 °F 59.0 °F 45% 30.08 in 10.0 mi Variable 3.5 mph - N/A   Partly Cloudy
2:53 PM 84.0 °F 83.8 °F 59.0 °F 43% 30.09 in 10.0 mi Variable 4.6 mph - N/A   Scattered Clouds
3:53 PM 82.9 °F 82.6 °F 57.9 °F 42% 30.08 in 10.0 mi Calm Calm - N/A   Partly Cloudy
4:53 PM 84.9 °F 84.4 °F 59.0 °F 41% 30.06 in 10.0 mi East 5.8 mph - N/A   Scattered Clouds
5:53 PM 84.0 °F 83.8 °F 59.0 °F 43% 30.06 in 10.0 mi East 5.8 mph - N/A   Partly Cloudy
6:53 PM 81.0 °F 81.3 °F 59.0 °F 47% 30.06 in 10.0 mi Calm Calm - N/A   Partly Cloudy
7:53 PM 79.0 °F - 59.0 °F 50% 30.05 in 10.0 mi ESE 3.5 mph - N/A   Clear
8:53 PM 72.0 °F - 61.0 °F 68% 30.06 in 10.0 mi East 3.5 mph - N/A   Clear
9:53 PM 71.1 °F - 61.0 °F 70% 30.08 in 10.0 mi ENE 3.5 mph - N/A   Clear
10:53 PM 70.0 °F - 61.0 °F 73% 30.09 in 10.0 mi ENE 5.8 mph - N/A   Clear
11:53 PM 68.0 °F - 60.1 °F 76% 30.09 in 10.0 mi East 4.6 mph - N/A   Scattered Clouds